Location: Montreal
(45.5000°N, 73.5833°W)
Time: 20:27:50
(UTC-04:00)

ISS - Pass Details

Date: 16 October 2017
Orbit: 400 x 408 km, 51.6° (Epoch: 24 October)

Event Time Altitude Azimuth Distance (km) Brightness Sun altitude
Rises 19:18:03 0° 286° (WNW) 2,324 1.6 -13.3°
Reaches altitude 10° 19:20:52 10° 259° (W) 1,461 0.4 -13.8°
Maximum altitude 19:22:38 14° 227° (SW) 1,248 -0.7 -14.1°
Drops below altitude 10° 19:24:24 10° 194° (SSW) 1,458 -0.9 -14.4°
Sets 19:27:13 0° 167° (SSE) 2,314 -0.1 -14.9°
